Weather History for Oscoda, MI

Change the Weather History Date:

Thursday, November 7, 2013

  Actual Average Record
Temperature  
Mean Temperature 36 °F -  
Max Temperature 38 °F 46 °F 60 °F (2011)
Min Temperature 32 °F 31 °F 15 °F (2002)
Degree Days  
Heating Degree Days 30    
Moisture  
Dew Point 31 °F    
Average Humidity 79    
Maximum Humidity 92    
Minimum Humidity 69    
Precipitation  
Precipitation 0.00 in - - ()
Sea Level Pressure  
Sea Level Pressure 30.01 in    
Wind  
Wind Speed 9 mph (West)    
Max Wind Speed 16 mph    
Max Gust Speed 24 mph    
Visibility 10 miles    
Events Snow    
Averages and records for this station are not official NWS values.
T = Trace of Precipitation, MM = Missing Value Source: NWS Daily Summary

Daily Weather History Graph

Daily Weather History Graph

Search for Another Location

Airport:

Trip Planner

Search our weather history database for the weather conditions in past years. The results will help you decide how hot, cold, wet, or windy it might be!

Date:

Astronomy

Nov. 07, 2013 Rise Set
Actual Time 7:19 AM EST 5:14 PM EST
Civil Twilight 6:48 AM EST 5:45 PM EST
Nautical Twilight 6:13 AM EST 6:20 PM EST
Astronomical Twilight 5:39 AM EST 6:54 PM EST
Moon 11:29 AM EST (11/7) 9:23 PM EST (11/7)
Length of Visible Light 10h 56m
Length of Day
9h 55m
Waxing Crescent, 22% of the Moon is Illuminated
Nov 7
Waxing Crescent
Nov 10
First Quarter
Nov 17
Full
Nov 25
Last Quarter
Dec 2
New

Hourly Weather History & Observations

Time (EST) Temp. Windchill Dew Point Humidity Pressure Visibility Wind Dir Wind Speed Gust Speed Precip Events Conditions
12:13 AM 35.8 °F 31.9 °F 32.5 °F 88% 29.94 in 10.0 mi West 4.6 mph - N/A   Mostly Cloudy
12:34 AM 34.9 °F 29.0 °F 32.5 °F 91% 29.95 in 10.0 mi West 6.9 mph - N/A   Overcast
12:54 AM 37.6 °F 32.3 °F 34.2 °F 87% 29.95 in 10.0 mi West 6.9 mph - N/A   Overcast
1:13 AM 37.8 °F 33.3 °F 34.5 °F 88% 29.96 in 10.0 mi West 5.8 mph - N/A   Overcast
1:34 AM 38.1 °F 30.7 °F 34.2 °F 86% 29.97 in 10.0 mi West 11.5 mph - N/A   Overcast
1:54 AM 37.8 °F 31.3 °F 33.8 °F 86% 29.97 in 10.0 mi WNW 9.2 mph 16.1 mph N/A   Overcast
2:13 AM 37.8 °F 31.3 °F 33.4 °F 84% 29.97 in 10.0 mi West 9.2 mph - N/A   Overcast
2:34 AM 37.8 °F 32.5 °F 33.3 °F 84% 29.97 in 10.0 mi WNW 6.9 mph - N/A   Overcast
2:54 AM 37.6 °F 33.1 °F 33.4 °F 85% 29.97 in 10.0 mi West 5.8 mph - N/A   Overcast
3:10 AM 37.8 °F 31.8 °F 33.3 °F 84% 29.98 in 10.0 mi West 8.1 mph - N/A   Overcast
3:34 AM 37.6 °F 33.1 °F 33.3 °F 84% 29.97 in 10.0 mi West 5.8 mph - N/A   Overcast
3:54 AM 37.6 °F 31.6 °F 32.9 °F 83% 29.97 in 10.0 mi West 8.1 mph - N/A   Overcast
4:13 AM 37.0 °F 31.0 °F 32.4 °F 83% 29.98 in 10.0 mi West 8.1 mph - N/A   Overcast
4:34 AM 36.0 °F 30.3 °F 32.4 °F 87% 29.98 in 10.0 mi WSW 6.9 mph - N/A   Mostly Cloudy
4:54 AM 37.0 °F 30.4 °F 32.4 °F 83% 29.98 in 10.0 mi West 9.2 mph - N/A   Overcast
5:13 AM 36.7 °F 30.5 °F 32.4 °F 84% 29.99 in 10.0 mi West 8.1 mph - N/A   Overcast
5:34 AM 36.7 °F 29.9 °F 32.9 °F 86% 29.99 in 10.0 mi WSW 9.2 mph - N/A   Overcast
5:54 AM 36.5 °F 29.2 °F 32.7 °F 86% 29.99 in 10.0 mi WSW 10.4 mph - N/A   Overcast
6:13 AM 36.5 °F 30.3 °F 32.5 °F 86% 29.99 in 10.0 mi West 8.1 mph - N/A   Overcast
6:34 AM 36.5 °F 30.3 °F 32.0 °F 84% 30.00 in 10.0 mi West 8.1 mph - N/A   Overcast
6:54 AM 36.7 °F 29.9 °F 32.0 °F 83% 30.00 in 10.0 mi WSW 9.2 mph - N/A   Overcast
7:13 AM 36.5 °F 30.3 °F 32.0 °F 84% 30.00 in 10.0 mi WSW 8.1 mph - N/A   Overcast
7:34 AM 36.5 °F 30.3 °F 32.0 °F 84% 30.01 in 10.0 mi WSW 8.1 mph - N/A   Overcast
7:54 AM 36.3 °F 30.1 °F 32.0 °F 84% 30.02 in 10.0 mi WSW 8.1 mph - N/A   Overcast
8:13 AM 36.5 °F 29.7 °F 32.0 °F 84% 30.02 in 10.0 mi WSW 9.2 mph - N/A   Overcast
8:34 AM 36.9 °F 29.6 °F 31.8 °F 82% 30.02 in 10.0 mi West 10.4 mph - N/A   Overcast
8:54 AM 37.4 °F 30.3 °F 31.5 °F 79% 30.03 in 10.0 mi West 10.4 mph - N/A   Overcast
9:13 AM 37.4 °F 28.9 °F 30.9 °F 77% 30.03 in 10.0 mi West 13.8 mph 17.3 mph N/A   Overcast
9:34 AM 37.8 °F 30.7 °F 31.1 °F 77% 30.03 in 10.0 mi West 10.4 mph - N/A   Overcast
9:54 AM 37.9 °F 30.5 °F 30.9 °F 76% 30.03 in 10.0 mi West 11.5 mph - N/A   Overcast
10:13 AM 37.8 °F 31.3 °F 30.9 °F 76% 30.03 in 10.0 mi West 9.2 mph - N/A   Overcast
10:34 AM 37.8 °F 31.3 °F 30.2 °F 74% 30.03 in 10.0 mi West 9.2 mph 16.1 mph N/A   Overcast
10:54 AM 38.3 °F 30.5 °F 30.0 °F 72% 30.04 in 10.0 mi West 12.7 mph 16.1 mph N/A   Overcast
11:13 AM 38.5 °F 31.1 °F 29.7 °F 71% 30.04 in 10.0 mi West 11.5 mph - N/A   Overcast
11:34 AM 38.3 °F 32.5 °F 29.1 °F 70% 30.04 in 10.0 mi West 8.1 mph - N/A   Overcast
11:54 AM 38.3 °F 32.5 °F 29.3 °F 70% 30.04 in 10.0 mi West 8.1 mph - N/A   Overcast
12:13 PM 38.5 °F 32.7 °F 29.5 °F 70% 30.03 in 10.0 mi West 8.1 mph - N/A   Overcast
12:34 PM 38.5 °F 31.1 °F 29.5 °F 70% 30.03 in 10.0 mi West 11.5 mph - N/A   Overcast
12:54 PM 38.3 °F 30.5 °F 29.1 °F 70% 30.02 in 10.0 mi West 12.7 mph 18.4 mph N/A   Overcast
1:14 PM 37.9 °F 29.2 °F 29.1 °F 71% 30.02 in 10.0 mi WSW 15.0 mph 19.6 mph N/A   Overcast
1:34 PM 37.9 °F 29.6 °F 29.3 °F 71% 30.02 in 10.0 mi West 13.8 mph 21.9 mph N/A   Overcast
1:53 PM 38.3 °F 30.5 °F 29.5 °F 71% 30.02 in 10.0 mi West 12.7 mph - N/A   Overcast
2:14 PM 38.3 °F 29.7 °F 28.9 °F 69% 30.02 in 10.0 mi West 15.0 mph 24.2 mph N/A   Overcast
2:34 PM 38.3 °F 29.7 °F 28.9 °F 69% 30.02 in 10.0 mi West 15.0 mph 21.9 mph N/A   Overcast
2:53 PM 38.5 °F 30.7 °F 29.3 °F 70% 30.01 in 10.0 mi West 12.7 mph 19.6 mph N/A   Overcast
3:14 PM 38.7 °F 29.8 °F 29.1 °F 69% 30.01 in 10.0 mi West 16.1 mph 21.9 mph N/A   Overcast
3:34 PM 38.7 °F 31.8 °F 29.3 °F 69% 30.02 in 10.0 mi West 10.4 mph - N/A   Overcast
3:53 PM 38.3 °F 30.5 °F 29.5 °F 71% 30.01 in 10.0 mi West 12.7 mph 18.4 mph N/A   Overcast
4:14 PM 38.3 °F 30.5 °F 28.8 °F 69% 30.01 in 10.0 mi WSW 12.7 mph 19.6 mph N/A   Overcast
4:34 PM 38.3 °F 30.9 °F 28.8 °F 69% 30.01 in 10.0 mi West 11.5 mph - N/A   Overcast
4:53 PM 38.1 °F 29.5 °F 28.8 °F 69% 30.01 in 10.0 mi West 15.0 mph - N/A   Overcast
5:14 PM 37.8 °F 29.8 °F 28.8 °F 70% 30.01 in 10.0 mi West 12.7 mph 18.4 mph N/A   Overcast
5:34 PM 37.6 °F 29.6 °F 28.4 °F 69% 30.02 in 10.0 mi West 12.7 mph 16.1 mph N/A   Overcast
5:53 PM 37.4 °F 29.8 °F 28.6 °F 70% 30.02 in 10.0 mi West 11.5 mph - N/A   Overcast
6:14 PM 37.4 °F 30.3 °F 28.4 °F 70% 30.03 in 10.0 mi West 10.4 mph - N/A   Overcast
6:34 PM 37.4 °F 30.3 °F 28.6 °F 70% 30.03 in 10.0 mi West 10.4 mph - N/A   Overcast
6:53 PM 37.2 °F 30.0 °F 28.8 °F 71% 30.04 in 10.0 mi West 10.4 mph - N/A   Overcast
7:14 PM 36.1 °F 29.9 °F 30.6 °F 80% 30.04 in 5.0 mi West 8.1 mph - N/A Snow Light Snow
7:34 PM 34.7 °F 29.6 °F 31.6 °F 89% 30.03 in 10.0 mi WSW 5.8 mph - N/A   Overcast
7:53 PM 35.2 °F 27.6 °F 31.1 °F 85% 30.03 in 10.0 mi West 10.4 mph - N/A   Overcast
8:14 PM 35.8 °F 27.8 °F 30.2 °F 80% 30.03 in 10.0 mi West 11.5 mph - N/A   Overcast
8:34 PM 35.8 °F 27.8 °F 29.7 °F 78% 30.03 in 10.0 mi West 11.5 mph - N/A   Overcast
8:53 PM 36.0 °F 28.0 °F 29.7 °F 78% 30.03 in 10.0 mi West 11.5 mph - N/A   Overcast
9:14 PM 36.0 °F 28.5 °F 29.3 °F 77% 30.03 in 10.0 mi West 10.4 mph 17.3 mph N/A   Overcast
9:34 PM 35.8 °F 28.8 °F 29.1 °F 77% 30.03 in 10.0 mi West 9.2 mph - N/A   Overcast
9:53 PM 35.8 °F 27.8 °F 29.5 °F 78% 30.03 in 10.0 mi West 11.5 mph - N/A   Overcast
10:14 PM 35.4 °F 27.8 °F 30.2 °F 81% 30.03 in 5.0 mi West 10.4 mph - N/A Snow Light Snow
10:34 PM 34.9 °F 28.3 °F 30.9 °F 85% 30.04 in 7.0 mi West 8.1 mph - N/A Snow Light Snow
10:53 PM 34.7 °F 28.8 °F 31.1 °F 87% 30.04 in 10.0 mi West 6.9 mph - N/A   Overcast
11:14 PM 34.2 °F 26.8 °F 31.1 °F 89% 30.04 in 10.0 mi West 9.2 mph - N/A   Overcast
11:34 PM 33.4 °F 27.3 °F 30.7 °F 90% 30.04 in 10.0 mi West 6.9 mph - N/A   Mostly Cloudy
11:53 PM 32.9 °F 26.7 °F 30.7 °F 92% 30.04 in 10.0 mi West 6.9 mph - N/A   Mostly Cloudy